Retour au catalogue

STARLINK-1400

ActifCommunicationsVLEO
NORAD 45700·PAYLOAD·🇺🇸 United States

Lancé Jun 4, 2020 depuis Cape Canaveral Space Force Station

Loading…

Prochains Passages (prochaines 24 heures)

TLE

FraisSource: CelesTrak SupGP

Époque: Sep 15, 2026, 01:09 UTC

1 45700C 20035AV  26258.04840278  .00118570  00000+0  47824-3 0  2589
2 45700  53.0372 169.7294 0005103  84.8606  40.4897 15.85569177    14

Suivez STARLINK-1400 en temps réel avec AllMySat

Download on the App Store